www.pogodaiklimat.ru

Погода и климат >> Архив погоды >> Антарктида >> San Martin Base


ПОГОДА в San Martin Base

  • Прогноз погоды в San Martin Base
  • Монитор погоды в San Martin Base
  • Климат города

АРХИВ ПОГОДЫ в San Martin Base

Время (UTC), дата Ветер
(напр.,м/с)
 
Видим.   Явления Облачность Т
(С)
Тd
(С)
f
(%)
Тe
(С)
Тes
(С)
Комфортность P
(гПа)
Po
(гПа)
Тmin
(С)
Tmax
(С)
R
(мм)
R24
(мм)
S
(см)
09 18.06 В 6 10 км 8/0
[Ac As Ci]
-5.4 -10.4 68 -13 -13 985.6 984.6
12 18.06 В 4 10 км 3/0
[Ci fib]
-5.8 -10.9 67 -12 -12 985.5 984.6 -6.0 -4.2 20
15 18.06 В 10 10 км 9/4 600 м
[Sc Ac As Ci fib]
-6.0 -10.1 73 -16 -16 984.7 983.8
18 18.06 В 13 10 км 10/3 600 м
[Sc Ac As Ci fib]
-7.8 -9.5 88 -19 -19 983.4 982.5
21 18.06 В 12 10 км 10/5 750 м
[Sc Ac As]
-8.0 -11.6 75 -19 -19 980.9 980.0
00 19.06 В 15 4000 м позёмок {метель} 5/0
[Ac As Ci fib]
-8.6 -12.4 74 -21 -21 979.0 978.1 -8.6 -5.8
03 19.06 В 15 4000 м позёмок {метель} 8/0
[Ac As Ci]
-9.0 -14.0 67 -21 -21 977.0 976.1
06 19.06 В 18 4000 м позёмок {метель} 4/0
[Ci fib]
-9.4 -14.5 66 -22 -22 975.1 974.2
09 19.06 В 15 4000 м позёмок {метель} 10/0
[Ac As Ci]
-8.0 -11.6 75 -20 -20 973.7 972.8
12 19.06 В 14 3000 м позёмок {метель} 3/0
[Ci fib]
-8.2 -11.9 75 -20 -20 973.5 972.6 -9.6 -7.8 20
15 19.06 В 15 4000 м позёмок {метель} 5/0
[Ci fib]
-8.6 -11.3 81 -21 -21 973.5 972.6
18 19.06 В 14 4000 м позёмок {метель} 6/1 600 м
[Sc Ci sp]
-8.8 -12.6 74 -21 -21 973.6 972.6
21 19.06 ЮЗ 3 10 км {метель} 4/0
[Ci sp]
-7.6 -11.1 76 -13 -13 974.3 973.4
00 20.06 СВ 4 10 км 4/0
[Ci fib]
-8.6 -13.5 68 -15 -15 974.4 973.4 -9.6 -7.0
03 20.06 СВ 4 10 км 5/0
[Ci fib]
-8.4 -15.7 56 -15 -15 975.0 974.1
06 20.06 В 9 10 км 4/0
[Ci fib]
-7.6 -13.3 64 -17 -17 975.1 974.2
09 20.06 СВ 2 10 км 8/0
[Ac As Ci]
-6.8 -14.5 54 -10 -10 975.6 974.6
12 20.06 В 13 10 км 5/0
[Ac As Ci fib]
-9.7 -12.1 83 -22 -22 976.4 975.4 -9.7 -6.5 18
15 20.06 В 13 2000 м слабый снег {метель} 10/6 180 м
[Sc As op]
-9.5 -12.4 79 -21 -21 977.6 976.6
18 20.06 В 7 10 км в посл. час снег 10/3 600 м
[Sc Ac As Ci sp]
-8.0 -13.3 66 -17 -17 978.4 977.4 0.0
21 20.06 В 10 10 км 10/0
[Ac As Ci sp]
-8.2 -13.0 68 -18 -18 979.4 978.5
00 21.06 В 4 10 км 4/0
[Ci fib]
-8.6 -13.5 68 -15 -15 980.1 979.2 -9.7 -7.2
03 21.06 В 10 10 км 4/0
[Ci fib]
-8.4 -14.4 62 -19 -19 980.7 979.8
06 21.06 В 16 4000 м позёмок {метель} 4/0
[Ci fib]
-9.0 -15.3 60 -21 -21 982.4 981.4
09 21.06 В 15 4000 м позёмок {метель} 4/0
[Ci fib]
-9.6 -16.1 59 -22 -22 984.2 983.3
12 21.06 В 21 2000 м позёмок {метель} 4/0
[Ci fib]
-11.0 -14.2 77 -25 -25 986.2 985.3 -11.0 -8.0 0.0 18
15 21.06 В 15 2000 м позёмок {метель} 5/0
[Ci fib]
-9.0 -14.0 67 -21 -21 988.6 987.7
18 21.06 В 21 2000 м позёмок {метель} 9/6 240 м
[St Ac As]
-9.4 -13.4 73 -23 -23 991.3 990.4
21 21.06 В 19 2000 м позёмок {метель} 9/6 240 м
[St Ac As]
-10.2 -14.4 71 -24 -24 993.3 992.4
00 22.06 В 15 2000 м позёмок {метель} 9/5 240 м
[Sc Ac As]
-8.7 -13.6 68 -21 -21 995.5 994.6 -11.0 -8.7
03 22.06 В 15 2000 м позёмок {метель} 10/5 240 м
[Sc Ac As]
-8.6 -13.5 68 -21 -21 996.8 995.8
06 22.06 В 15 4000 м позёмок {метель} 4/4 600 м
[Sc]
-8.6 -13.5 68 -21 -21 998.9 998.0
09 22.06 В 9 10 км {метель} ясно -8.0 -13.8 63 -18 -18 999.9 999.0
12 22.06 С 3 10 км ясно -8.2 -14.7 59 -14 -14 1000.0 999.0 -9.2 -8.0 18
15 22.06 С 6 20 км 5/0
[Ci fib]
-9.5 -12.9 76 -18 -18 1001.1 1000.2
18 22.06 С 4 20 км 6/0
[Ci fib]
-9.2 -13.1 73 -16 -16 1001.2 1000.2
21 22.06 С 3 10 км 6/0
[Ci fib]
-9.8 -12.2 83 -16 -16 1001.6 1000.6
00 23.06 СВ 2 10 км 3/0
[Ci fib]
-9.6 -13.6 73 -14 -14 1002.0 1001.0 -10.4 -8.2
03 23.06 В 1 10 км ясно -10.4 -17.3 57 -13 -13 1002.1 1001.2
06 23.06 С 3 15 км ясно -10.0 -15.4 65 -15 -15 1002.1 1001.2
09 23.06 СВ 1 10 км ясно -9.8 -13.9 72 -12 -12 1002.6 1001.7
12 23.06 штиль 0 10 км ясно -10.2 -15.0 68 -10 -10 1002.8 1001.8 -11.0 -9.6 18
15 23.06 В 7 20 км ясно -11.1 -16.2 66 -20 -20 1002.6 1001.7
18 23.06 В 3 20 км 5/0
[Ci fib]
-10.8 -14.5 74 -17 -17 1002.5 1001.6
21 23.06 С 1 20 км 5/0
[Ci fib]
-10.7 -15.0 71 -13 -13 1002.3 1001.4
00 24.06 С 2 20 км ясно -10.9 -15.9 67 -15 -15 1002.1 1001.2 -12.0 -10.0
03 24.06 ЮВ 1 10 км ясно -10.0 -16.0 61 -12 -12 1001.5 1000.6
06 24.06 штиль 0 10 км ясно -10.2 -15.6 65 -10 -10 1001.1 1000.2
09 24.06 штиль 0 10 км ясно -10.6 -15.5 67 -11 -11 1001.3 1000.4
12 24.06 С 4 12 км ясно -10.0 -20.0 44 -17 -17 1001.8 1000.9 -10.9 -9.2 17
15 24.06 С 2 15 км ясно -10.8 -21.5 41 -15 -15 1002.0 1001.0
18 24.06 СЗ 3 15 км ясно -9.8 -17.9 52 -16 -16 1003.0 1002.1
21 24.06 С 3 10 км ясно -10.2 -18.6 50 -16 -16 1004.6 1003.7
00 25.06 штиль 0 10 км ясно -12.0 -14.8 80 -12 -12 1006.5 1005.6 -12.0 -9.8
03 25.06 штиль 0 10 км ясно -12.4 -17.3 67 -12 -12 1007.1 1006.2
06 25.06 В 1 10 км ясно -12.8 -17.8 66 -15 -15 1008.3 1007.4

 

Местоположение метеостанции San Martin Base (Антарктида): широта -68.11 долгота -67.13 высота над уровнем моря 4 м.

В архиве по умолчанию представлена погода в San Martin Base за последнюю неделю. Архивные данные за месяц целиком и за предыдущие месяцы, начиная с января 2011 года, Вы можете получить, выбрав интересующий диапазон дат из раскрывающегося списка и нажав кнопку "Ввод!".


*Определитесь, кто Вы:
робот инопланетянин человек

Внимание! Время в таблицах - всемирное. Для получения местного времени необходимо прибавить поправку, которая в San Martin Base равна 0 ч.

Смотрите также архив погоды в соседних городах и на ближайших метеорологических станциях:

Погода в Rothera (Антарктида) (74 км)
Погода в Larsen Ice Shelf (Антарктида) (267 км)
Погода в Vernadsky (Антарктида) (342 км)
Погода в Fossil Bluff (Антарктида) (361 км)
Погода в Palmer Station (Антарктида) (396 км)
Погода в Butler Island (Антарктида) (525 км)
Погода в Marambio Base (Антарктида) (635 км)
Погода в Bernardo o`Higgins (Антарктида) (679 км)
Погода в Juan Carlos Island (Антарктида) (681 км)
Погода в Esperanza Base (Антарктида) (698 км)

Пояснения к столбцам:

Ветер - указаны скорость ветра в м/с - средняя за 10 мин, порывы в срок и между сроками (в фигурных скобках) и направление, откуда дует ветер: С - северный, СВ - северо-восточный, В - восточный, ЮВ - юго-восточный, Ю - южный, ЮЗ - юго-западный, З - западный, СЗ - северо-западный.
Видимость - горизонтальная дальность видимости в метрах или километрах. При видимости от 1 до 10 км при отсутствии осадков обычно наблюдается дымка, при ухудшении видимости до 1 км и менее - туман. В сухую погоду видимость может ухудшаться дымом, пылью или мглою.
Явления - указаны атмосферные явления, наблюдавшиеся в срок или в последний час перед сроком; фигурными скобками обозначены явления, наблюдавшиеся между сроками (за 1-3 часа до срока); квадратными скобками обозначены град или гололедные отложения с указанием их диаметра в мм.
Облачность - указаны через наклонную черту общая и нижняя облачность в баллах и высота нижней границы облаков в метрах; квадратными скобками обозначены формы облаков: Ci - перистые, Cs - перисто-слоистые, Cc - перисто-кучевые, Ac - высококучевые, As - высокослоистые, Sc - слоисто-кучевые, Ns - слоисто-дождевые, Cu - кучевые, Cb - кучево-дождевые. Подробнее классификацию облаков см. в Атласе облаков (PDF).
T - Температура воздуха - температура, измеренная на высоте 2 м над землей.
Td - Температура точки росы - температура, при понижении до которой содержащийся в воздухе водяной пар достигнет насыщения.
f - Относительная влажность воздуха - влажноcть воздуха, измеренная на высоте 2 м над землей.
Te - Эффективная температура - температура, которую ощущает одетый по сезону человек в тени. Характеристика душности погоды. При расчете учитывается влияние влажности воздуха и скорости ветра на теплоощущения человека.
Tes - Эффективная температура на солнце - температура, которую ощущает человек, с поправкой на солнечный нагрев. Характеристика знойности погоды. Зависит от высоты солнца над горизонтом, облачности и скорости ветра. Ночью, в пасмурную погоду, а также при ветре 12 м/с и более поправка равна нулю.
P - Атмосферное давление - приведенное к уровню моря атмосферное давление.
Po - Атмосферное давление - измеренное на уровне метеостанции атмосферное давление.
Tmin - Минимальная температура - минимум температуры воздуха на высоте 2 м над землей.
Tmax - Максимальная температура - максимум температуры воздуха на высоте 2 м над землей.
R - Количество осадков - Количество выпавших осадков за период времени, мм. При наведении курсора мыши на число - период времени, за который выпало указанное количество осадков.
R24 - Количество осадков - Количество выпавших осадков за 24 часа, мм.
S - Снежный покров - Высота снежного покрова, см. При наведении курсора мыши на число - состояние снежного покрова и степень покрытия местности в баллах.